Regional Weather Roundup
Issued by NWS Cleveland, OH

Home | Current Version | Previous Version | Graphics & Text | Print | Product List | Glossary On
Versions: 1 2 3 4 5 6 7 8 9 10 11 12 13 14 15 16 17 18 19 20 21 22 23 24 25 26 27 28 29 30 31 32 33 34 35 36 37 38 39 40 41 42 43 44 45 46 47 48 49 50
000
ASUS41 KCLE 280102
RWRCLE
OHIO REGIONAL WEATHER ROUNDUP
NATIONAL WEATHER SERVICE CLEVELAND, OH
900 PM EDT THU APR 27 2017

NOTE: "FAIR" INDICATES FEW OR NO CLOUDS BELOW 12,000 FEET WITH NO
SIGNIFICANT WEATHER AND/OR OBSTRUCTIONS TO VISIBILITY.

OHZ001>008-015>018-024>027-034-035-043-044-280200-
   NORTHWEST OHIO

CITY           SKY/WX    TMP DP  RH WIND       PRES   REMARKS
DEFIANCE       CLOUDY    51  42  71 W8        29.79R
FINDLAY        CLEAR     52  40  63 W12       29.78R
TOLEDO EXPRESS CLOUDY    53  42  66 SW18      29.77R
TOLEDO EXEC    CLOUDY    53  43  68 W18G28    29.78R
LIMA           CLEAR     50  43  77 W7        29.80R
$$

OHZ009>014-019>023-028>033-038-089-280200-
   NORTHEAST OHIO

CITY           SKY/WX    TMP DP  RH WIND       PRES   REMARKS
CLE-HOPKINS    PTCLDY    61  44  53 W13       29.76R
CLE-LAKEFRONT  CLEAR     56  48  74 W21       29.73R
CUY CO. ARPT   PTCLDY    57  48  72 W12G21    29.74R
LORAIN-ELYRIA  CLEAR     58  42  55 W12G22    29.76R
ASHTABULA      CLOUDY    58  48  69 W9G21     29.76R
AKRON-CANTON   PTCLDY    64  48  56 W15G21    29.75R
WOOSTER        CLEAR     60  48  64 W10       29.77R
MANSFIELD      PTCLDY    57  45  64 W9        29.78R
YOUNGSTOWN     CLOUDY    62  59  90 SW3       29.74R
$$

OHZ042-051>053-060>062-070>072-077>081-280200-
  SOUTHWEST OHIO

CITY           SKY/WX    TMP DP  RH WIND       PRES   REMARKS
CINC-COVINGTON MOCLDY    56  46  69 W5        29.83R
CINC-LUNKEN    PTCLDY    57  49  74 SW8       29.84R
HAMILTON       CLOUDY    56  48  74 VRB3      29.84R
DAYTON         PTCLDY    53  44  71 SW10      29.83R
WRIGHT-PAT AFB CLEAR     57  45  64 W10       29.82R
DAYTON GENERAL CLOUDY    57  45  64 W7        29.82R
WILMINGTON     CLOUDY    56  47  71 W8        29.83R
$$

OHZ036-037-039>041-045>050-054>059-063>069-073>076-082>088-280200-
  CENTRAL AND SOUTHEAST OHIO

CITY           SKY/WX    TMP DP  RH WIND       PRES   REMARKS
COLUMBUS       PTCLDY    62  46  55 W10G22    29.79R
OSU AIRPORT    PTCLDY    58  46  64 W8        29.79R
BOLTON FIELD   CLEAR     58  47  66 SW10      29.81R
RICKENBACK AFB CLEAR     58  47  65 W9        29.80R
NEWARK         CLEAR     61  46  57 W10       29.78R
MARION         PTCLDY    56  44  64 W9G18     29.80R
LANCASTER      CLEAR     62  47  57 W10       29.80R
ZANESVILLE     CLEAR     65  49  56 W9G18     29.78R
NEW PHILLY     NOT AVBL
$$



USA.gov is the U.S. government's official web portal to all federal, state and local government web resources and services.